Lobo

Go HERE for most recent data if this page is not up to date.

Jump to table bottom
Date/Time Temp deg F RH % 24 Hr Snow (in) Snow Depth (in) H2O (in)
01/16 22:00 20.6 79 -0.2 33.8 0.00
01/16 21:00 20.9 84 -0.3 33.7 0.00
01/16 20:00 21.3 84 -0.3 33.7 0.00
01/16 19:00 21.8 83 -0.2 33.9 0.00
01/16 18:00 21.7 80 -0.2 34.0 0.00
01/16 17:00 23.1 80 -0.3 33.8 0.00
01/16 16:00 24.9 72 -0.3 33.8 0.00
01/16 15:00 24.7 69 -0.3 33.8 0.00
01/16 14:00 25.5 70 -0.4 33.5 0.00
01/16 13:00 26.1 68 -0.4 33.7 0.00
01/16 12:00 21.6 72 -0.2 34.1 0.00
01/16 11:00 20.4 81 -0.3 33.8 0.00
01/16 10:00 19.8 72 -0.0 34.3 0.00
01/16 09:00 19.1 75 -0.0 34.3 0.00
01/16 08:00 18.4 69 -0.0 34.2 0.00
01/16 07:00 17.9 80 -0.0 34.4 0.00
01/16 06:00 17.5 81 -0.0 35.2 0.00
01/16 05:00 17.4 76 -0.0 34.3 0.00
01/16 04:00 18.0 72 -0.1 34.2 0.00
01/16 03:00 18.1 71 -0.0 34.1 0.00
01/16 02:00 18.5 75 -0.1 34.1 0.00
01/16 01:00 19.4 71 -0.2 34.1 0.00
01/16 00:00 19.6 71 -0.2 34.1 0.00
01/15 23:00 20.1 80 -0.3 34.0 0.00
01/15 22:00 20.6 79 -0.2 34.1 0.00
01/15 21:00 20.2 81 -0.2 34.1 0.00
01/15 20:00 20.0 86 -0.2 34.2 0.00
01/15 19:00 19.4 82 -0.2 33.9 0.00
01/15 18:00 20.5 80 -0.3 33.9 0.00
01/15 17:00 20.6 68 -0.3 34.0 0.00
01/15 16:00 22.6 54 -0.3 33.8 0.00
01/15 15:00 23.7 37 -0.3 33.8 0.00
01/15 14:00 24.3 30 -0.4 33.8 0.00
01/15 13:00 24.8 27 -0.3 33.9 0.00
01/15 12:00 24.1 31 -0.2 34.1 0.00
01/15 11:00 24.4 32 -0.2 34.3 0.00
01/15 10:00 24.4 30 -0.0 34.4 0.00
01/15 09:00 21.0 30 0.0 34.7 0.00
01/15 08:00 20.9 34 -0.0 34.5 0.00
01/15 07:00 20.3 34 -0.0 34.5 0.00
01/15 06:00 21.4 37 -0.0 34.5 0.00
01/15 05:00 22.1 33 -0.0 34.3 0.00
01/15 04:00 23.1 35 -0.0 34.4 0.00
01/15 03:00 25.1 25 -0.0 34.5 0.00
01/15 02:00 23.8 25 0.0 34.8 0.00
01/15 01:00 24.3 27 -0.0 34.5 0.00
01/15 00:00 25.5 18 -0.0 34.4 0.00
.